Starlink 31932

operational
NORAD ID: 59929 Int'l Des: 2024-106 Owner: SPXS Country: US Constellation: starlink
LEOCIRCULAR

About Starlink 31932

Description loading...

Live Position

Loading 3D Globe...

Upcoming Passes

Altitude History

Altitude vs Time

uPlot chart will show altitude changes over time

Two-Line Element Set

1 59929U 24106H 26033.41384906 -.00080271 00000-0 -29441-2 0 9998
2 59929 42.9996 168.5373 0005326 291.4816 68.5467 15.27509113 95166
Epoch: Feb 2, 2026 • Age: 28 hours

Current Status

Altitude 490.1 km
Velocity 7.62 km/s
Sub-Earth Point -27.72°S, 38.6°E
Launch Date Jun 1, 2024
Age 1.6 years
Type internet

Technical Details

Classification Payload
Mass 730.00 kg
Dry Mass 700.00 kg
Total Mass 730.00 kg
Length 0.30 m
Diameter 4.10 m
Span 29.00 m
Shape Box + pan
Manufacturer SPXS
Bus Type Starlink V2M
Phase Status In Orbit
Owner/State SPXS/US

Large Constellations

Loading constellations...